Starlink 35376

operational
NORAD ID: 66018 Int'l Des: 2025-232 Owner: SPXS Country: US Constellation: starlink
LEOCIRCULAR

Über Starlink 35376

Beschreibung wird geladen...

Live-Position

3D-Globus wird geladen...

Nächste Überflüge

Höhenverlauf

Altitude vs Time

uPlot chart will show altitude changes over time

Zweizeiliger Elementsatz

1 66018C 25232P 25290.81298611 -.00284360 00000+0 -40667-3 0 2903
2 66018 53.1576 56.8320 0003591 295.2918 1.2347 16.05035825 11
Epoch: 17. Okt. 2025 • Age: 63 hours

Aktueller Status

Höhe 263.1 km
Geschwindigkeit 7.75 km/s
Subsatellitenpunkt -2.20°S, 150.68°E
Startdatum 16. Okt. 2025
Alter 3 days
Typ internet

Technische Details

Klassifizierung Payload
Masse 575.00 kg
Trockenmasse 530.00 kg
Gesamtmasse 575.00 kg
Länge 0.30 m
Durchmesser 4.10 m
Spannweite 29.00 m
Form Box + pan
Hersteller SPXS
Bus-Typ Starlink V2MO
Phasenstatus In Orbit
Besitzer/Staat SPXS/US

Große Konstellationen

Loading constellations...